Change the Weather History Date:

Sunday, March 3, 2013

  Actual Average Record
Temperature  
Mean Temperature 42 °F -  
Max Temperature 48 °F 62 °F 70 °F (1955)
Min Temperature 35 °F 42 °F 12 °F (1980)
Degree Days  
Heating Degree Days 24    
Moisture  
Dew Point 26 °F    
Average Humidity 56    
Maximum Humidity 70    
Minimum Humidity 39    
Precipitation  
Precipitation 0.00 in - - ()
Sea Level Pressure  
Sea Level Pressure 29.88 in    
Wind  
Wind Speed 8 mph (NW)    
Max Wind Speed 12 mph    
Max Gust Speed -    
Visibility 10 miles    
Events      
Averages and records for this station are not official NWS values.
T = Trace of Precipitation, MM = Missing Value Source: NWS Daily Summary

Daily Weather History Graph

Daily Weather History Graph

Search for Another Location

Airport or City:

Trip Planner

Search our weather history database for the weather conditions in past years. The results will help you decide how hot, cold, wet, or windy it might be!

Date:

Astronomy

Mar. 03, 2013 Rise Set
Actual Time 6:33 AM EST 6:04 PM EST
Civil Twilight 6:07 AM EST 6:29 PM EST
Nautical Twilight 5:38 AM EST 6:58 PM EST
Astronomical Twilight 5:09 AM EST 7:28 PM EST
Moon No Moon Rise 10:02 AM EST (3/3)
Length of Visible Light 12h 22m
Length of Day
11h 31m
Waning Gibbous, 64% of the Moon is Illuminated
Mar 3
Waning Gibbous
Mar 4
Last Quarter
Mar 11
New
Mar 19
First Quarter
Mar 27
Full

Hourly Weather History & Observations

Time (EST) Temp. Windchill Dew Point Humidity Pressure Visibility Wind Dir Wind Speed Gust Speed Precip Events Conditions
12:58 AM 37.0 °F 32.4 °F 28.0 °F 70% 29.87 in 10.0 mi North 5.8 mph - N/A   Clear
1:58 AM 37.0 °F 32.4 °F 26.1 °F 65% 29.87 in 10.0 mi North 5.8 mph - N/A   Clear
2:58 AM 36.0 °F 31.1 °F 26.1 °F 67% 29.86 in 10.0 mi North 5.8 mph - N/A   Clear
3:58 AM 37.0 °F 31.0 °F 28.0 °F 70% 29.86 in 10.0 mi North 8.1 mph - N/A   Clear
4:58 AM 36.0 °F 28.0 °F 27.0 °F 70% 29.87 in 10.0 mi NNW 11.5 mph - N/A   Clear
5:58 AM 35.1 °F 27.4 °F 26.1 °F 70% 29.88 in 10.0 mi NW 10.4 mph - N/A   Clear
6:58 AM 35.1 °F 26.9 °F 26.1 °F 70% 29.89 in 10.0 mi NW 11.5 mph - N/A   Partly Cloudy
7:58 AM 37.0 °F 29.3 °F 27.0 °F 67% 29.91 in 10.0 mi NNW 11.5 mph - N/A   Partly Cloudy
8:58 AM 39.9 °F 32.9 °F 27.0 °F 60% 29.90 in 10.0 mi NNW 11.5 mph - N/A   Partly Cloudy
9:58 AM 43.0 °F 36.8 °F 26.1 °F 51% 29.90 in 10.0 mi NNW 11.5 mph - N/A   Clear
10:58 AM 45.0 °F 41.2 °F 26.1 °F 48% 29.89 in 10.0 mi Variable 6.9 mph - N/A   Scattered Clouds
11:58 AM 45.0 °F 41.2 °F 25.0 °F 46% 29.88 in 10.0 mi NW 6.9 mph - N/A   Partly Cloudy
12:58 PM 46.0 °F 40.6 °F 23.0 °F 40% 29.85 in 10.0 mi NW 11.5 mph - N/A   Partly Cloudy
1:58 PM 46.9 °F - 24.1 °F 41% 29.83 in 7.0 mi NNW 11.5 mph - N/A   Clear
2:58 PM 48.0 °F - 24.1 °F 39% 29.83 in 10.0 mi NW 10.4 mph - N/A   Partly Cloudy
4:58 PM 46.9 °F - 25.0 °F 42% 29.84 in 10.0 mi North 8.1 mph - N/A   Clear
5:58 PM 44.1 °F 38.6 °F 23.0 °F 43% 29.87 in 10.0 mi WNW 10.4 mph - N/A   Clear
6:58 PM 42.1 °F 38.4 °F 25.0 °F 51% 29.89 in 10.0 mi WNW 5.8 mph - N/A   Clear
7:58 PM 41.0 °F 38.0 °F 27.0 °F 57% 29.91 in 10.0 mi WNW 4.6 mph - N/A   Clear
8:58 PM 41.0 °F 38.0 °F 25.0 °F 53% 29.92 in 10.0 mi West 4.6 mph - N/A   Clear
9:58 PM 37.9 °F 35.5 °F 26.1 °F 62% 29.93 in 10.0 mi West 3.5 mph - N/A   Clear
10:58 PM 41.0 °F 35.2 °F 25.0 °F 53% 29.92 in 10.0 mi West 9.2 mph - N/A   Clear
11:58 PM 37.9 °F 30.5 °F 26.1 °F 62% 29.93 in 10.0 mi NNW 11.5 mph - N/A   Clear